Dewpoint
18 14 14 13 12 12 15 17 22 19 29 36 38 38 39 37 40 43 43 46 48 49 47 47 47 47 48 55 57 58 58 59 58 59 59 60 60 61 61 61 62 63 63 64 66 66 67 67 68 69 69 69 70 71 72 72 73 73 73 73 74 75 76 75 74 74 73 72 73 74 73 72 73 74 75 75 75 74 74 75 76 76 75 75 75 74
16 15 13 12 13 13 15 18 22 25 28 35 37 37 38 39 37 42 42 44 48 47 47 49 48 48 50 55 57 58 58 58 58 59 59 60 60 61 62 62 62 63 64 64 65 65 66 66 67 68 68 69 69 70 71 71 72 73 73 73 74 74 75 74 75 75 75 75 74 73 72 72 71 73 73 74 75 74 75 76 76 76 75 75 75 75
16 10 11 14 14 17 21 19 20 22 28 32 32 35 36 37 33 36 42 42 46 46 46 47 47 47 49 53 57 58 58 59 58 59 59 60 61 61 61 62 63 63 64 64 64 65 65 65 66 67 68 68 69 70 70 71 72 73 73 73 74 74 74 74 75 75 75 75 75 74 73 72 71 73 74 73 74 76 76 76 76 75 75 75 75 75
14 12 11 14 15 17 21 22 22 23 25 28 31 34 34 33 36 34 35 40 44 44 44 47 45 46 49 53 55 58 58 59 60 59 59 60 61 61 61 62 62 63 63 63 63 63 64 65 66 66 67 68 69 69 70 71 72 72 73 73 74 74 74 75 75 75 75 76 76 75 75 74 73 73 75 76 76 76 76 75 76 75 76 76 75 74
10 13 14 14 15 14 18 22 22 20 20 24 25 28 30 29 33 34 33 40 44 46 45 45 44 44 49 49 52 56 58 58 59 59 60 60 60 61 62 62 62 62 63 63 63 63 63 64 65 66 67 67 68 69 70 70 71 72 72 73 74 74 74 75 75 75 75 75 75 75 75 75 75 74 74 75 74 75 75 74 75 76 76 76 75 75
10 13 16 14 15 14 17 21 20 19 20 22 24 24 24 27 28 34 40 40 39 41 44 41 40 40 47 47 48 53 56 57 58 59 59 60 60 60 60 61 62 62 63 64 64 63 63 64 65 66 67 67 67 68 69 70 70 72 72 73 74 74 74 74 75 75 75 74 74 74 73 72 72 72 72 72 73 72 73 72 73 76 74 75 75 75
10 15 15 13 14 15 14 16 20 18 18 19 20 24 23 26 29 36 38 35 38 37 41 42 37 34 47 48 50 53 55 56 58 58 57 59 60 59 60 60 60 60 61 62 63 63 63 64 65 66 67 66 66 68 69 70 71 72 72 73 74 74 74 74 75 75 75 74 74 74 73 73 72 72 73 74 73 73 74 75 75 76 74 75 75 74
16 16 16 16 14 13 13 12 20 18 16 17 24 24 25 28 32 36 37 33 38 44 44 42 38 36 37 41 50 53 53 55 56 57 57 57 59 58 59 58 60 60 60 61 62 63 63 64 65 65 66 66 66 67 69 69 70 72 73 73 73 74 74 74 75 75 75 74 74 74 74 73 73 72 73 74 74 75 75 75 75 75 74 74 74 74
13 14 15 15 15 12 10 12 22 20 15 18 26 25 25 27 30 35 35 32 39 36 41 42 42 39 39 44 51 52 52 54 54 55 56 57 57 58 58 58 59 60 60 60 61 62 63 64 64 66 67 67 67 67 68 69 70 71 72 73 74 74 74 74 75 75 75 75 75 74 74 74 73 74 74 74 73 73 74 74 75 75 74 74 74 74
15 13 13 15 15 12 17 16 21 21 15 20 25 25 26 28 34 35 33 34 39 37 37 43 40 38 37 45 46 52 51 51 53 54 55 57 57 57 57 58 58 59 61 60 60 62 63 64 64 65 66 67 67 67 69 69 70 71 72 73 73 73 73 74 75 75 75 75 75 74 74 74 74 74 74 73 72 73 73 73 74 74 73 72 73 74
16 31 21 14 14 15 18 22 23 20 19 23 22 23 26 31 37 39 41 41 40 35 35 41 41 37 30 39 43 47 48 50 50 54 55 56 57 57 58 58 58 59 60 60 60 61 63 63 65 65 66 67 68 68 69 69 69 70 71 72 73 73 73 74 74 75 75 75 75 74 74 74 74 74 74 72 72 72 72 73 73 73 73 72 72 72
18 19 20 15 21 15 18 18 23 24 22 21 20 23 25 31 35 37 37 40 33 32 38 35 40 38 31 31 45 48 50 50 50 50 53 53 55 56 58 57 57 59 60 60 61 61 62 64 65 65 66 67 69 69 69 68 69 70 71 72 72 73 74 74 74 75 74 74 74 75 75 74 74 75 73 72 72 71 71 72 72 73 73 73 72 71
16 19 17 14 36 13 15 13 19 23 22 21 22 24 21 28 27 26 31 30 32 28 31 33 39 40 39 37 44 45 47 48 50 49 49 51 53 56 56 57 58 58 59 60 62 62 62 63 64 65 66 68 69 69 69 69 68 70 72 72 72 73 74 74 74 74 74 75 75 74 74 75 75 75 74 73 72 71 71 71 72 72 72 72 70 70
18 16 14 15 13 21 13 8 18 19 22 20 21 28 26 24 22 23 27 32 30 30 30 30 40 34 40 42 44 42 42 44 47 50 50 51 54 56 57 58 57 58 59 60 61 62 63 64 64 66 67 68 68 69 69 69 70 71 71 72 72 73 74 74 75 74 75 75 75 75 75 75 75 75 74 73 72 71 71 71 71 71 70 70 69 69
16 15 15 14 14 22 15 8 13 17 21 21 20 20 24 26 21 23 26 23 23 24 34 35 34 36 31 33 41 41 43 45 45 46 50 53 52 55 54 56 56 57 59 61 62 61 62 64 65 66 67 68 68 68 69 70 71 72 72 72 73 73 74 74 74 74 74 74 75 75 75 75 75 74 73 72 71 71 70 70 70 71 70 69 69 69
15 15 17 15 16 18 15 16 17 18 19 20 21 20 25 22 28 19 28 22 25 26 29 38 34 38 33 46 44 45 40 42 40 44 47 50 51 53 53 54 55 56 57 60 61 62 63 65 66 66 66 67 68 69 68 70 71 71 72 73 73 73 74 74 74 74 74 75 75 75 75 75 75 74 73 72 71 71 70 70 70 70 70 70 70 70
18 16 15 15 15 14 14 19 19 17 14 20 20 19 18 25 18 34 33 29 28 26 25 40 36 35 38 36 36 39 42 42 45 43 43 47 49 54 53 54 54 55 57 59 60 61 64 64 66 66 67 66 67 68 69 71 72 71 72 72 73 74 74 74 74 74 74 75 75 75 75 75 74 73 72 71 70 69 69 70 70 69 69 70 70 69
15 17 15 14 12 12 13 17 15 18 17 18 17 19 26 27 28 30 19 35 25 19 29 32 28 29 31 25 48 41 39 37 41 45 41 48 52 52 52 55 56 56 57 60 62 64 64 64 65 65 66 66 66 67 69 72 72 72 72 72 73 73 74 74 74 74 74 74 75 75 75 74 74 72 71 71 70 69 69 69 69 69 69 68 68 68
17 14 15 14 14 13 14 16 14 16 20 16 17 23 16 24 23 44 33 24 23 23 23 31 32 29 32 29 32 31 37 38 44 47 45 47 48 50 51 54 57 57 57 59 60 62 63 64 65 66 65 65 67 69 70 71 71 72 72 72 72 73 73 73 73 74 74 74 74 74 74 74 73 72 71 70 70 70 68 67 68 67 68 68 69 69
17 13 18 20 14 15 13 12 11 10 15 17 21 19 20 23 31 30 26 36 26 21 24 23 29 25 36 33 32 30 38 47 42 44 45 43 47 50 52 52 56 57 58 58 59 61 62 63 63 64 65 65 67 69 69 69 69 69 70 72 72 72 73 74 74 74 74 74 74 74 74 74 73 72 71 70 70 69 68 68 67 67 67 68 68 68
19 27 17 15 17 13 13 13 8 8 12 14 15 18 20 22 23 25 28 25 22 26 25 22 24 30 36 39 35 39 42 45 45 46 50 49 46 48 51 53 56 58 58 59 60 60 62 62 62 64 65 66 67 68 67 67 68 68 69 70 71 72 72 73 73 73 74 74 74 74 73 73 72 71 70 69 69 69 69 68 68 67 67 69 68 68
24 21 19 19 15 14 12 14 10 7 8 12 12 17 17 20 23 20 22 23 26 22 29 24 21 32 32 37 43 41 41 41 46 47 48 47 47 50 51 53 57 58 60 60 59 59 60 63 63 64 66 67 67 66 66 67 68 68 69 69 69 69 70 70 72 73 74 74 74 74 73 72 71 70 69 69 69 68 68 68 68 68 69 67 68 68
25 34 20 19 16 14 13 14 16 11 8 10 12 13 16 16 21 21 20 27 25 26 29 32 25 28 43 44 42 43 41 37 42 45 46 46 49 49 51 49 56 60 59 57 59 58 60 63 64 66 68 68 68 68 68 68 68 68 69 69 70 70 70 69 71 73 74 74 74 74 73 72 70 70 68 68 68 66 66 66 68 68 67 66 66 68
37 23 25 20 23 22 20 18 20 17 12 9 10 11 15 15 15 17 20 36 23 31 26 25 26 26 39 54 50 41 52 50 51 46 49 46 47 51 51 51 58 60 61 59 59 59 63 64 66 68 69 69 69 70 69 69 69 69 69 69 69 69 70 71 71 72 74 74 73 73 73 71 70 69 67 67 67 66 65 64 66 67 67 67 67 66
21 41 27 22 22 21 18 20 17 19 15 12 11 13 14 13 17 20 33 43 26 30 21 23 19 23 37 56 53 51 45 42 42 43 50 51 53 51 52 55 58 61 62 60 62 63 64 64 67 69 69 70 70 70 70 70 70 69 70 69 69 69 70 71 72 72 72 73 72 72 72 71 69 68 68 67 66 65 64 63 63 65 66 66 67 66
24 32 28 19 19 18 19 17 17 20 17 16 20 16 18 13 15 26 22 35 22 40 36 23 21 36 44 51 46 47 47 48 46 45 45 49 55 52 53 55 60 61 62 62 64 64 63 66 68 69 70 70 70 69 71 71 70 70 70 70 70 70 70 71 71 72 72 72 72 72 71 71 69 68 67 66 65 64 63 64 66 66 66 65 65 65
36 41 31 32 24 20 24 29 34 26 22 16 16 16 15 14 17 21 35 28 20 38 32 34 34 31 37 35 44 42 48 45 42 48 51 52 52 55 58 59 59 61 62 61 64 64 67 67 68 69 70 69 68 70 70 70 70 70 71 71 70 70 71 72 72 73 72 71 71 71 71 71 69 68 67 67 67 66 65 64 65 65 65 65 64 63
45 32 31 36 36 31 23 28 27 22 17 16 15 14 15 15 19 20 25 23 48 32 24 39 49 33 34 38 43 46 46 50 51 52 51 54 55 54 55 60 59 59 60 63 63 64 65 67 68 69 69 69 69 70 70 70 70 71 71 71 70 70 70 71 72 73 72 72 71 71 71 71 70 69 68 68 68 67 66 66 68 68 68 67 64 64
30 24 24 26 27 25 21 20 23 22 16 16 14 14 15 16 21 20 31 29 42 25 21 40 50 44 38 33 38 43 48 49 46 50 50 53 53 56 57 55 55 56 59 60 63 65 66 66 68 68 68 69 69 69 70 69 70 71 71 70 71 70 70 72 72 73 72 72 71 71 71 71 71 69 68 68 68 68 68 68 68 68 68 67 65 65
35 24 29 23 22 21 21 19 20 21 19 15 14 14 15 15 18 19 22 26 32 39 33 40 50 42 33 32 35 40 48 45 49 51 51 50 48 55 55 57 55 56 57 59 62 63 65 66 68 68 69 69 69 69 69 69 70 70 70 70 70 71 71 73 73 73 72 72 72 72 71 71 70 69 68 68 68 66 66 67 67 67 67 65 65 65
34 33 41 25 26 20 18 19 19 19 19 18 16 15 14 14 16 18 17 22 32 31 33 34 47 46 41 45 42 49 56 48 47 43 43 51 53 53 54 54 55 55 56 59 63 63 64 66 67 68 68 69 69 69 69 70 70 70 68 69 70 71 71 72 73 73 73 72 72 72 71 70 70 69 67 68 68 68 68 66 65 65 65 65 65 66
37 38 32 34 26 24 21 19 18 18 18 18 18 17 17 15 18 18 23 31 31 36 37 35 38 36 39 43 42 46 48 50 47 51 52 53 51 55 55 55 56 58 57 59 61 62 64 64 66 66 67 67 68 69 69 70 69 69 68 70 70 69 70 71 72 72 72 72 72 71 71 70 70 69 68 68 67 67 67 67 67 66 65 65 65 66
41 36 34 29 26 27 26 21 19 18 20 20 20 18 19 20 21 20 21 32 27 29 33 33 30 36 40 46 43 45 41 46 49 49 52 54 57 54 56 57 56 57 59 61 62 63 62 62 64 66 66 66 67 68 68 69 68 69 70 70 71 71 71 72 72 72 72 72 71 71 71 70 69 69 68 68 67 67 66 66 66 65 63 62 63 65
44 38 36 38 31 31 31 24 22 22 19 19 26 21 23 19 20 20 19 23 30 33 32 34 35 40 46 46 41 45 46 49 51 55 56 56 57 58 56 58 57 57 58 58 60 61 63 63 64 65 67 68 68 67 69 69 68 69 70 71 72 72 72 72 72 72 72 72 71 71 70 70 69 68 68 68 67 67 66 66 64 64 64 63 64 63
40 41 37 42 32 31 32 29 25 23 23 33 42 39 24 20 20 20 22 22 24 33 35 40 41 47 49 44 45 47 48 57 52 51 46 46 53 55 57 56 58 58 58 60 61 60 64 65 65 66 67 66 65 67 68 68 68 69 70 71 71 72 72 72 72 72 71 71 71 70 70 70 69 68 67 67 66 65 65 65 64 64 64 63 63 64
43 38 38 39 35 34 32 29 25 25 36 40 38 40 40 31 26 25 23 33 41 31 38 35 39 41 49 49 47 51 51 50 50 54 55 54 54 53 52 53 55 55 58 59 62 64 65 63 64 64 66 66 67 66 66 67 66 66 69 71 71 72 72 72 72 71 71 70 70 69 69 69 68 67 67 66 66 65 65 64 63 62 63 61 61 63
44 43 40 36 40 32 35 29 28 41 36 36 37 40 38 37 30 26 25 28 40 43 40 40 41 45 48 49 49 48 50 46 49 50 49 50 53 53 52 53 53 56 59 62 61 63 67 66 67 65 68 67 66 67 66 67 67 68 69 70 70 72 71 71 71 71 70 70 69 69 68 68 67 67 67 65 64 63 63 63 62 62 61 61 61 61
49 42 44 38 37 37 33 30 31 29 27 34 42 45 44 43 44 45 43 38 48 47 45 44 46 48 50 48 47 49 51 43 41 45 51 52 52 53 53 56 56 58 60 61 67 66 68 68 68 68 66 67 68 70 70 69 69 70 70 70 71 71 71 70 70 70 70 69 69 68 68 68 67 67 66 65 64 63 63 63 63 63 63 61 61 61
45 47 50 38 36 36 34 31 30 30 31 46 44 44 45 45 45 46 38 30 47 47 48 47 46 50 50 49 51 51 44 38 40 48 55 56 53 51 54 56 56 59 61 63 63 65 67 69 69 68 69 69 69 69 70 70 70 69 70 70 70 70 69 69 70 69 69 69 68 68 67 67 67 66 65 65 64 63 61 61 62 63 64 63 63 62
50 47 41 37 36 37 35 32 29 34 33 44 44 45 45 46 46 41 29 28 48 48 49 49 47 49 50 51 50 49 43 38 42 48 55 60 59 61 62 63 63 63 64 66 67 69 69 69 69 69 69 68 68 69 69 69 69 70 70 69 68 68 69 69 69 69 69 68 68 67 67 67 66 66 65 65 64 65 63 63 62 62 63 63 63 63
49 51 45 37 34 38 38 33 36 38 46 47 45 46 46 47 42 35 28 39 51 51 50 49 47 48 51 50 48 46 52 58 58 60 62 62 61 63 64 65 65 65 65 65 66 67 67 67 68 68 68 68 68 68 68 69 68 68 68 68 68 69 69 69 69 69 69 68 67 66 66 66 66 65 64 64 64 64 63 63 63 63 63 62 62 63
49 51 49 44 38 34 38 34 33 39 45 46 47 47 48 40 34 32 47 52 52 49 49 46 45 47 49 53 53 57 60 60 61 62 63 62 64 65 64 64 64 64 65 66 67 66 66 66 67 67 67 68 67 67 67 68 68 68 68 68 68 69 68 69 69 68 68 67 67 66 66 65 66 65 64 64 64 65 64 64 64 63 63 63 64 65
44 41 45 45 47 44 42 36 33 30 47 47 46 48 49 43 46 49 52 51 51 52 52 54 52 55 57 59 61 61 60 60 61 62 63 64 65 65 65 65 65 65 65 65 65 65 65 67 67 66 65 64 65 66 67 68 68 68 67 68 69 68 68 68 68 68 67 67 67 66 66 65 65 64 63 63 64 64 65 65 65 65 65 65 65 65
47 37 46 49 49 47 45 41 34 46 48 47 47 48 51 52 51 53 54 53 55 55 56 57 58 60 60 61 60 60 61 61 62 63 63 63 64 65 67 67 68 66 65 63 64 65 66 66 65 64 64 64 66 67 67 68 68 67 68 68 68 67 67 68 67 67 66 67 66 66 65 65 64 64 64 65 65 65 65 65 65 65 66 66 66 66
49 48 48 37 49 49 48 50 49 50 49 47 47 48 52 55 57 56 56 56 55 56 58 57 57 58 58 59 59 59 59 60 60 60 61 62 63 63 64 65 65 66 66 65 63 65 64 64 65 65 65 65 66 67 67 68 68 68 68 68 67 67 67 67 67 65 66 66 66 66 66 65 65 65 65 65 65 65 65 64 64 65 66 67 66 66
49 50 51 53 51 53 49 50 50 51 49 46 46 45 45 46 48 50 50 50 51 53 54 55 55 56 58 59 57 58 58 58 58 58 59 61 63 65 66 66 66 66 66 66 65 65 64 64 64 65 65 65 66 66 67 67 68 69 69 67 67 67 67 67 66 65 66 66 66 66 66 65 65 65 65 66 65 65 65 64 64 64 65 64 64 65
47 46 46 47 51 46 44 53 47 49 50 48 46 47 45 46 45 48 51 51 50 50 49 51 52 53 54 56 57 57 57 57 57 59 62 63 62 64 65 67 68 67 67 67 67 66 65 65 64 64 65 65 65 65 64 66 67 68 68 67 66 66 67 67 67 66 65 65 66 67 66 66 65 65 65 65 65 64 65 65 64 63 63 63 64 65
47 48 47 47 48 50 47 52 53 51 50 51 49 48 48 49 49 49 51 52 53 52 53 54 53 53 53 54 57 57 57 58 60 60 59 61 63 64 65 65 66 67 67 67 67 67 66 66 66 65 65 65 65 65 65 65 66 66 65 64 64 65 66 66 66 66 66 65 66 66 66 66 66 65 64 64 65 64 64 64 64 63 63 63 65 65
46 49 47 47 46 49 50 52 53 52 53 54 49 48 49 50 51 49 49 49 49 50 51 51 52 53 54 55 58 58 58 59 60 61 59 62 64 64 65 65 66 66 67 67 67 67 68 67 66 66 66 65 65 64 65 65 64 63 65 64 64 66 65 66 66 65 65 65 64 65 65 65 65 65 66 66 62 57 54 54 61 65 64 64 64 64
44 44 44 45 46 46 47 48 50 48 48 53 53 51 49 49 50 50 47 47 48 48 48 47 48 50 52 54 54 54 55 57 58 60 59 62 64 65 65 65 64 64 65 66 66 66 67 67 67 66 65 65 65 65 65 65 65 64 62 63 64 65 66 66 66 66 66 65 65 63 63 64 64 64 64 62 59 56 53 47 42 44 55 60 52 49
45 46 45 45 46 45 47 48 51 50 52 53 55 52 50 51 51 50 51 49 48 48 47 46 46 48 49 51 53 53 55 54 55 55 54 57 61 64 64 64 64 64 64 65 65 66 66 66 66 66 66 65 65 65 65 65 65 65 64 65 65 66 66 66 65 64 62 63 61 62 63 63 62 63 63 61 60 59 57 54 51 40 40 43 45 44